Location: Isola Pescaroli
(45.0500°N, 10.1667°E)
Time: 04:45:16
(UTC+00:00)

Cosmos 2366 rocket - Pass Details

Date: 03 March 2021
Orbit: 954 x 997 km, 82.9° (Epoch: 13 April)

Event Time Altitude Azimuth Distance (km) Brightness Sun altitude
Rises 18:20:36 0° 160° (SSE) 3,679 6.8 -13.3°
Reaches altitude 10° 18:23:17 10° 152° (SSE) 2,741 6.0 -13.8°
Maximum altitude 18:28:57 37° 88° (E) 1,506 4.5 -14.8°
Drops below altitude 10° 18:34:41 10° 23° (NNE) 2,774 6.2 -15.8°
Sets 18:37:24 0° 16° (NNE) 3,729 7.0 -16.3°
